Location: Drocourt
(49.0571°N, 1.7669°E)
Time: 09:28:56
(UTC+00:00)

Cosmos 1741 Rocket - Pass Details

Date: 09 February 2023
Orbit: 761 x 781 km, 74.0° (Epoch: 23 March)

Event Time Altitude Azimuth Distance (km) Brightness Sun altitude
Rises 18:17:31 0° 206° (SSW) 3,252 7.7 -12.6°
Reaches altitude 10° 18:19:53 10° 207° (SSW) 2,330 7.0 -13.0°
Maximum altitude 18:25:12 77° 294° (WNW) 806 4.2 -13.9°
Drops below altitude 10° 18:30:33 10° 21° (NNE) 2,347 6.3 -14.8°
Sets 18:32:57 0° 23° (NNE) 3,278 7.0 -15.2°
